Altoona, PA

3:51 AM EDT on April 22, 2018 (GMT -0400)
Altoona-Blair County

Weather History for KAOO - July, 2013

Change the Weather History Date:

Saturday, July 20, 2013

  Actual Average Record
Temperature  
Mean Temperature 77 °F 71 °F  
Max Temperature 85 °F 82 °F 96 °F (2011)
Min Temperature 68 °F 60 °F 45 °F (1965)
Degree Days  
Heating Degree Days 0 0  
Month to date heating degree days 0 1  
Since 1 June heating degree days 20 59  
Since 1 July heating degree days 0 1  
Cooling Degree Days 12 6  
Month to date cooling degree days 222 119  
Year to date cooling degree days 424 261  
Since 1 June cooling degree days 350 228  
Growing Degree Days 26 (Base 50)    
Moisture  
Dew Point 67 °F    
Average Humidity 71    
Maximum Humidity 84    
Minimum Humidity 58    
Precipitation  
Precipitation 0.13 in 0.11 in 1.20 in (1988)
Month to date precipitation 1.37 2.13  
Year to date precipitation 15.51 19.79  
Sea Level Pressure  
Sea Level Pressure 29.90 in    
Wind  
Wind Speed 8 mph (SW)    
Max Wind Speed 20 mph    
Max Gust Speed 25 mph    
Visibility 8 miles    
Events Rain , Thunderstorm    
T = Trace of Precipitation, MM = Missing Value Source: NWS Daily Summary

Daily Weather History Graph

Daily Weather History Graph

Search for Another Location

Airport or City:

Astronomy

Jul. 20, 2013 Rise Set
Actual Time 6:00 AM EDT 8:38 PM EDT
Civil Twilight 5:28 AM EDT 9:09 PM EDT
Nautical Twilight 4:49 AM EDT 9:49 PM EDT
Astronomical Twilight 4:04 AM EDT 10:33 PM EDT
Moon 6:40 PM EDT (7/20) 3:38 AM EDT (7/20)
Length of Visible Light 15h 41m
Length of Day
14h 38m
Waxing Gibbous, 93% of the Moon is Illuminated
Jul 20
Waxing Gibbous
Jul 22
Full
Jul 29
Last Quarter
Aug 6
New
Aug 14
First Quarter

Hourly Weather History & Observations

Time (EDT) Temp. Heat Index Dew Point Humidity Pressure Visibility Wind Dir Wind Speed Gust Speed Precip Events Conditions
12:53 AM 75.0 °F - 66.9 °F 76% 29.90 in 9.0 mi SW 6.9 mph - N/A   Clear
1:53 AM 75.9 °F - 66.0 °F 71% 29.90 in 10.0 mi SW 10.4 mph - N/A   Clear
2:53 AM 75.0 °F - 66.0 °F 73% 29.87 in 9.0 mi SSW 8.1 mph - N/A   Partly Cloudy
3:53 AM 73.9 °F - 66.9 °F 79% 29.86 in 9.0 mi SSW 10.4 mph - N/A   Clear
4:53 AM 75.0 °F - 66.9 °F 76% 29.88 in 10.0 mi SW 9.2 mph - N/A   Partly Cloudy
5:53 AM 75.0 °F - 64.9 °F 71% 29.88 in 10.0 mi SW 8.1 mph - N/A   Partly Cloudy
6:23 AM 73.4 °F - 66.2 °F 78% 29.93 in 10.0 mi SSW 6.9 mph - N/A   Mostly Cloudy
6:53 AM 73.9 °F - 66.9 °F 79% 29.89 in 8.0 mi SSW 6.9 mph - 0.00 in   Overcast
7:43 AM 73.4 °F - 68.0 °F 83% 29.95 in 2.5 mi WSW 6.9 mph - 0.02 in Rain Light Rain
7:51 AM 73.4 °F - 69.8 °F 88% 29.93 in 1.0 mi Variable 4.6 mph - 0.09 in Rain Heavy Rain
7:53 AM 73.0 °F - 69.1 °F 87% 29.90 in 1.0 mi Calm Calm - 0.10 in Rain Heavy Rain
8:04 AM 73.4 °F - 69.8 °F 88% 29.94 in 3.0 mi WSW 4.6 mph - 0.01 in Rain Light Rain
8:32 AM 73.4 °F - 69.8 °F 88% 29.95 in 4.0 mi SW 6.9 mph - 0.02 in Rain , Thunderstorm Light Rain
8:53 AM 73.0 °F - 69.1 °F 87% 29.91 in 5.0 mi West 3.5 mph - 0.03 in   Overcast
9:29 AM 75.2 °F - 71.6 °F 89% 29.96 in 5.0 mi SW 11.5 mph - 0.00 in Thunderstorm Haze
9:44 AM 75.2 °F - 69.8 °F 83% 29.95 in 5.0 mi WSW 8.1 mph - 0.00 in   Haze
9:53 AM 75.0 °F - 70.0 °F 84% 29.90 in 5.0 mi SW 6.9 mph - 0.00 in   Haze
10:53 AM 79.0 °F - 69.1 °F 72% 29.90 in 9.0 mi SW 8.1 mph - N/A   Clear
11:53 AM 82.9 °F 86.5 °F 69.1 °F 63% 29.90 in 10.0 mi SW 12.7 mph 19.6 mph N/A   Clear
12:53 PM 82.9 °F 87.0 °F 70.0 °F 65% 29.87 in 10.0 mi SW 13.8 mph - N/A   Clear
1:53 PM 81.0 °F 84.4 °F 70.0 °F 69% 29.86 in 8.0 mi SW 13.8 mph 20.7 mph N/A   Clear
2:53 PM 82.9 °F 85.0 °F 66.0 °F 56% 29.86 in 10.0 mi WSW 13.8 mph 21.9 mph N/A   Clear
3:53 PM 82.0 °F 84.1 °F 66.0 °F 58% 29.85 in 10.0 mi SSW 11.5 mph - N/A   Clear
4:53 PM 81.0 °F 82.7 °F 64.9 °F 58% 29.86 in 10.0 mi West 6.9 mph - N/A   Clear
5:53 PM 80.1 °F 81.9 °F 64.9 °F 60% 29.84 in 10.0 mi West 6.9 mph - N/A   Clear
6:53 PM 78.1 °F - 64.0 °F 62% 29.86 in 10.0 mi West 9.2 mph - N/A   Clear
7:53 PM 75.9 °F - 64.9 °F 69% 29.88 in 10.0 mi West 6.9 mph - N/A   Clear
8:53 PM 75.0 °F - 64.0 °F 69% 29.90 in 10.0 mi WSW 5.8 mph - N/A   Clear
9:53 PM 71.1 °F - 64.0 °F 78% 29.91 in 10.0 mi SW 5.8 mph - N/A   Clear
10:53 PM 71.1 °F - 64.0 °F 78% 29.92 in 10.0 mi SSW 4.6 mph - N/A   Clear
11:53 PM 69.1 °F - 64.0 °F 84% 29.93 in 10.0 mi SSW 5.8 mph - N/A   Clear